Lubbock, TX

10:59 AM CST on November 13, 2019 (GMT -0600)
Lubbock International

Weather History for KLBB - August, 2019

Change the Weather History Date:

Tuesday, August 6, 2019

  Actual Average Record
Temperature  
Mean Temperature 86 °F 80 °F  
Max Temperature 97 °F 92 °F 105 °F (2013)
Min Temperature 74 °F 68 °F 57 °F (1990)
Degree Days  
Heating Degree Days 0 0  
Month to date heating degree days 0 0  
Since 1 June heating degree days 0 2  
Since 1 July heating degree days 0 0  
Cooling Degree Days 21 15  
Month to date cooling degree days 118 90  
Year to date cooling degree days 1225 1183  
Since 1 June cooling degree days 1015 937  
Growing Degree Days 35 (Base 50)    
Moisture  
Dew Point 61 °F    
Average Humidity 52    
Maximum Humidity 79    
Minimum Humidity 25    
Precipitation  
Precipitation 0.10 in 0.06 in 0.90 in (1919)
Month to date precipitation 0.13 0.37  
Year to date precipitation 13.58 11.53  
Snow  
Snow 0.00 in 0.00 in 0.00 in (2002)
Month to date snowfall 0.0 0.0  
Since 1 June snowfall 0.0 0.0  
Since 1 July snowfall 0.0 0.0  
Snow Depth 0.00 in    
Sea Level Pressure  
Sea Level Pressure 29.87 in    
Wind  
Wind Speed 6 mph (SSE)    
Max Wind Speed 17 mph    
Max Gust Speed 22 mph    
Visibility 10 miles    
Events Rain    
T = Trace of Precipitation, MM = Missing Value Source: NWS Daily Summary

Daily Weather History Graph

Daily Weather History Graph

Search for Another Location

Airport or City:

Astronomy

Aug. 06, 2019 Rise Set
Actual Time 7:02 AM CDT 8:43 PM CDT
Civil Twilight 6:35 AM CDT 9:09 PM CDT
Nautical Twilight 6:03 AM CDT 9:42 PM CDT
Astronomical Twilight 5:29 AM CDT 10:16 PM CDT
Moon 1:12 PM CDT (8/6) 12:13 AM CDT (8/6)
Length of Visible Light 14h 33m
Length of Day
13h 40m
Waxing Crescent, 39% of the Moon is Illuminated
Aug 6
Waxing Crescent
Aug 7
First Quarter
Aug 15
Full
Aug 23
Last Quarter
Aug 30
New

Hourly Weather History & Observations

Time (CDT) Temp. Heat Index Dew Point Humidity Pressure Visibility Wind Dir Wind Speed Gust Speed Precip Events Conditions
12:53 AM 80.1 °F 80.1 °F 55.0 °F 42% 29.86 in 10.0 mi SSE 8.1 mph - N/A   Scattered Clouds
1:53 AM 79.0 °F - 55.9 °F 45% 29.86 in 10.0 mi SE 5.8 mph - N/A   Mostly Cloudy
2:53 AM 79.0 °F - 57.0 °F 47% 29.85 in 10.0 mi Calm Calm - N/A   Mostly Cloudy
3:53 AM 80.1 °F 80.6 °F 57.9 °F 47% 29.84 in 10.0 mi SSE 8.1 mph - N/A   Mostly Cloudy
4:53 AM 78.1 °F - 60.1 °F 54% 29.85 in 10.0 mi SE 5.8 mph - N/A   Overcast
5:53 AM 77.0 °F - 61.0 °F 58% 29.86 in 10.0 mi ESE 9.2 mph - N/A   Overcast
6:53 AM 75.0 °F - 66.0 °F 73% 29.90 in 10.0 mi ENE 11.5 mph - 0.00 in   Mostly Cloudy
7:53 AM 75.9 °F - 66.0 °F 71% 29.93 in 10.0 mi East 5.8 mph - N/A   Mostly Cloudy
8:53 AM 73.9 °F - 68.0 °F 82% 29.94 in 6.0 mi SSW 8.1 mph - 0.09 in Rain Rain
9:53 AM 75.0 °F - 68.0 °F 79% 29.94 in 9.0 mi WNW 6.9 mph - 0.01 in Rain Light Rain
10:53 AM 78.1 °F - 66.0 °F 66% 29.94 in 10.0 mi South 8.1 mph - 0.00 in   Mostly Cloudy
11:53 AM 84.0 °F 86.5 °F 66.9 °F 56% 29.91 in 10.0 mi SSE 9.2 mph - N/A   Mostly Cloudy
12:53 PM 82.9 °F 86.5 °F 69.1 °F 63% 29.92 in 9.0 mi NNW 6.9 mph - N/A   Mostly Cloudy
1:53 PM 88.0 °F 91.4 °F 68.0 °F 51% 29.90 in 10.0 mi Variable 3.5 mph - N/A   Scattered Clouds
2:53 PM 91.9 °F 91.8 °F 61.0 °F 35% 29.87 in 10.0 mi Calm Calm - N/A   Partly Cloudy
3:53 PM 93.9 °F 93.6 °F 60.1 °F 32% 29.85 in 10.0 mi Variable 3.5 mph - N/A   Partly Cloudy
4:53 PM 97.0 °F 96.1 °F 57.9 °F 27% 29.82 in 10.0 mi Variable 5.8 mph - N/A   Partly Cloudy
5:53 PM 96.1 °F 94.1 °F 55.0 °F 25% 29.81 in 10.0 mi South 6.9 mph - N/A   Scattered Clouds
6:53 PM 95.0 °F 93.0 °F 55.0 °F 26% 29.80 in 10.0 mi SSW 8.1 mph - N/A   Mostly Cloudy
7:53 PM 91.0 °F 90.0 °F 57.9 °F 33% 29.80 in 10.0 mi South 4.6 mph - N/A   Mostly Cloudy
8:53 PM 87.1 °F 86.7 °F 60.1 °F 40% 29.83 in 10.0 mi South 4.6 mph - N/A   Mostly Cloudy
9:53 PM 84.9 °F 84.8 °F 60.1 °F 43% 29.84 in 10.0 mi SE 3.5 mph - N/A   Mostly Cloudy
10:53 PM 82.9 °F 83.2 °F 60.1 °F 46% 29.84 in 10.0 mi SE 4.6 mph - N/A   Mostly Cloudy
11:53 PM 80.1 °F 81.1 °F 61.0 °F 52% 29.84 in 10.0 mi SE 9.2 mph - N/A   Mostly Cloudy